Regional Weather Roundup
Issued by NWS

Home | Current Version | Previous Version | Text Only | Print | Product List | Glossary Off
Versions: 1 2 3 4 5 6 7 8 9 10 11 12 13 14 15 16 17 18 19 20 21 22 23 24 25 26 27 28 29 30 31 32 33 34 35 36 37 38 39 40 41 42 43 44 45 46 47 48 49 50

000
ASUS45 KCYS 180910
RWRWY

WYOMING REGIONAL WEATHER ROUNDUP
NATIONAL WEATHER SERVICE CHEYENNE WY
200 AM MST MON DEC 18 2017

NOTE:  "FAIR" INDICATES FEW OR NO CLOUDS BELOW 12,000 FEET
WITH NO SIGNIFICANT WEATHER AND/OR OBSTRUCTIONS TO VISIBILITY.

WYZ001-181000-
YELLOWSTONE NATIONAL PARK

CITY           SKY/WX    TMP DP  RH WIND       PRES   REMARKS
LK YELLOWSTONE   N/A     14  11  87 CALM      30.07S
W YELLOWSTONE  NOT AVBL

$$
WYZ002>013-054>058-071-098>099-181000-
NORTHERN WYOMING

CITY           SKY/WX    TMP DP  RH WIND       PRES   REMARKS
JACKSON        FLURRIES  23  15  71 S13       30.12S WCI  11
CODY           FAIR      34  19  54 W21G26    29.88S WCI  22
GREYBULL       FAIR      14  12  92 SE5       29.93F WCI   6
WORLAND        FAIR      10   8  92 SE5       29.92F WCI   2
SHERIDAN       FAIR      14  12  92 N6        29.77F WCI   5
BUFFALO        FAIR      32  14  47 SW9       29.79F WCI  24
GILLETTE       FAIR      33  19  56 SW21      29.80F WCI  21
HULETT         FAIR      32  18  55 SW8       29.81F WCI  25
NEWCASTLE      FAIR      19  14  79 N6        29.89S WCI  11

$$
WYZ014>020-022>026-101>103-181000-
CENTRAL WYOMING

CITY           SKY/WX    TMP DP  RH WIND       PRES   REMARKS
BIG PINEY      MOCLDY    14  10  84 CALM      30.10S
PINEDALE       CLOUDY    21  14  73 NW9       30.10S WCI  11
DUBOIS         CLOUDY    23  16  74 N25G35    29.95S WCI   7
LANDER         FAIR      21  14  74 W12       29.91F WCI   9
RIVERTON       FAIR      11  10  96 N3        29.93S
CASPER         FAIR      28  17  63 SW25G33   29.91F WCI  13
DOUGLAS        FAIR      23  17  78 CALM      29.88F

$$
WYZ021-027>030-104>119-181000-
SOUTHERN WYOMING

CITY           SKY/WX    TMP DP  RH WIND       PRES   REMARKS
EVANSTON       FAIR      19  15  84 SW12      30.16S WCI   7
FORT BRIDGER   CLOUDY    23  13  67 W9        30.16F WCI  13
ROCK SPRINGS   NOT AVBL
DIXON          PTSUNNY   22  16  78 E5        30.18F WCI  16
RAWLINS        FAIR      24  13  62 SW6       30.07F WCI  17
LARAMIE        FAIR      24  13  62 SW12      29.98R WCI  13
CHEYENNE       FAIR      28  16  60 W9        29.93F WCI  19
TORRINGTON     FAIR      37  17  44 W15       29.91F WCI  28
PINE BLUFFS    FAIR      14  14 100 CALM      29.96S

$$



USA.gov is the U.S. government's official web portal to all federal, state and local government web resources and services.